Time,TemperatureF,DewpointF,PressureIn,WindDirection,WindDirectionDegrees,WindSpeedMPH,WindSpeedGustMPH,Humidity,HourlyPrecipIn,Conditions,Clouds,dailyrainin,SoftwareType,DateUTC
2013-06-10 07:38:00,73.0,65.0,30.06,NE,55,9.0,17.0,76,0.00,,,0.02,,2013-06-10 17:38:00,
2013-06-10 07:48:00,73.0,65.0,30.07,East,79,12.0,26.0,76,0.00,,,0.02,,2013-06-10 17:48:00,
2013-06-10 07:58:00,73.0,65.0,30.07,East,79,12.0,26.0,76,0.00,,,0.02,,2013-06-10 17:58:00,
2013-06-10 08:07:00,74.0,66.0,30.07,NE,49,12.0,22.0,75,0.00,,,0.02,,2013-06-10 18:07:00,
2013-06-10 08:14:00,74.0,66.0,30.07,NE,49,12.0,22.0,75,0.00,,,0.02,,2013-06-10 18:14:00,
2013-06-10 08:24:00,73.0,65.0,30.08,ENE,69,10.0,26.0,75,0.00,,,0.02,,2013-06-10 18:24:00,
2013-06-10 08:34:00,74.0,66.0,30.08,ENE,76,10.0,21.0,75,0.00,,,0.02,,2013-06-10 18:34:00,
2013-06-10 08:47:00,74.0,66.0,30.08,ENE,76,10.0,21.0,75,0.00,,,0.02,,2013-06-10 18:47:00,
2013-06-10 08:55:00,74.0,66.0,30.08,ENE,59,9.0,19.0,75,0.00,,,0.02,,2013-06-10 18:55:00,
2013-06-10 09:02:00,75.0,66.0,30.09,East,84,9.0,23.0,74,0.00,,,0.02,,2013-06-10 19:02:00,
2013-06-10 09:12:00,75.0,66.0,30.09,East,84,9.0,23.0,74,0.00,,,0.02,,2013-06-10 19:12:00,
2013-06-10 09:22:00,75.0,66.0,30.09,NE,38,12.0,16.0,73,0.00,,,0.02,,2013-06-10 19:22:00,
2013-06-10 09:32:00,75.0,66.0,30.08,East,86,9.0,15.0,73,0.00,,,0.02,,2013-06-10 19:32:00,
2013-06-10 09:42:00,76.0,66.0,30.08,ENE,74,10.0,18.0,71,0.00,,,0.02,,2013-06-10 19:42:00,
2013-06-10 09:53:00,76.0,66.0,30.08,ENE,74,10.0,18.0,71,0.00,,,0.02,,2013-06-10 19:53:00,
2013-06-10 10:02:00,76.0,66.0,30.08,NE,43,12.0,19.0,72,0.00,,,0.02,,2013-06-10 20:02:00,
2013-06-10 10:12:00,76.0,66.0,30.08,NE,43,12.0,19.0,72,0.00,,,0.02,,2013-06-10 20:12:00,
2013-06-10 10:22:00,75.0,66.0,30.08,NE,38,13.0,24.0,73,0.00,,,0.02,,2013-06-10 20:22:00,
2013-06-10 10:32:00,76.0,66.0,30.08,NE,51,9.0,28.0,71,0.00,,,0.02,,2013-06-10 20:32:00,
2013-06-10 10:42:00,76.0,66.0,30.08,NE,51,9.0,28.0,71,0.00,,,0.02,,2013-06-10 20:42:00,
2013-06-10 10:52:00,76.0,65.0,30.09,ENE,78,11.0,24.0,70,0.00,,,0.02,,2013-06-10 20:52:00,
2013-06-10 11:02:00,77.0,66.0,30.08,ENE,60,9.0,19.0,70,0.00,,,0.02,,2013-06-10 21:02:00,
2013-06-10 11:12:00,77.0,66.0,30.08,ENE,60,9.0,19.0,70,0.00,,,0.02,,2013-06-10 21:12:00,
2013-06-10 11:22:00,77.0,66.0,30.07,NNE,33,12.0,21.0,69,0.00,,,0.02,,2013-06-10 21:22:00,
2013-06-10 11:33:00,77.0,65.0,30.07,NE,38,13.0,25.0,67,0.00,,,0.02,,2013-06-10 21:33:00,
2013-06-10 11:42:00,77.0,65.0,30.07,NE,38,13.0,25.0,67,0.00,,,0.02,,2013-06-10 21:42:00,
2013-06-10 11:53:00,77.0,66.0,30.07,ENE,68,9.0,19.0,68,0.00,,,0.02,,2013-06-10 21:53:00,
2013-06-10 12:02:00,77.0,66.0,30.06,NE,55,10.0,19.0,68,0.00,,,0.02,,2013-06-10 22:02:00,
2013-06-10 12:12:00,77.0,66.0,30.06,NE,55,10.0,19.0,68,0.00,,,0.02,,2013-06-10 22:12:00,
2013-06-10 12:22:00,77.0,66.0,30.07,NE,51,11.0,18.0,70,0.00,,,0.02,,2013-06-10 22:22:00,
2013-06-10 12:33:00,77.0,66.0,30.06,NE,45,11.0,21.0,70,0.00,,,0.02,,2013-06-10 22:33:00,
2013-06-10 12:42:00,77.0,66.0,30.06,NE,52,11.0,18.0,69,0.00,,,0.02,,2013-06-10 22:42:00,
2013-06-10 12:52:00,77.0,66.0,30.06,NE,52,11.0,18.0,69,0.00,,,0.02,,2013-06-10 22:52:00,
2013-06-10 13:02:00,78.0,67.0,30.05,East,79,9.0,19.0,69,0.00,,,0.02,,2013-06-10 23:02:00,
2013-06-10 13:11:00,79.0,67.0,30.05,ENE,71,8.0,15.0,67,0.00,,,0.02,,2013-06-10 23:11:00,
2013-06-10 13:22:00,79.0,67.0,30.05,ENE,71,8.0,15.0,67,0.00,,,0.02,,2013-06-10 23:22:00,
2013-06-10 13:32:00,79.0,67.0,30.05,ENE,73,9.0,15.0,66,0.00,,,0.02,,2013-06-10 23:32:00,
2013-06-10 13:42:00,79.0,67.0,30.05,ENE,73,9.0,15.0,66,0.00,,,0.02,,2013-06-10 23:42:00,
2013-06-10 13:52:00,79.0,67.0,30.04,NNE,19,7.0,19.0,66,0.00,,,0.02,,2013-06-10 23:52:00,
2013-06-10 14:01:00,79.0,67.0,30.03,ENE,73,9.0,22.0,66,0.00,,,0.02,,2013-06-11 00:01:00,
2013-06-10 14:11:00,79.0,67.0,30.04,NE,56,6.0,18.0,67,0.00,,,0.02,,2013-06-11 00:11:00,
2013-06-10 14:22:00,79.0,67.0,30.04,NE,56,6.0,18.0,67,0.00,,,0.02,,2013-06-11 00:22:00,
2013-06-10 14:32:00,78.0,67.0,30.03,East,82,7.0,17.0,68,0.00,,,0.02,,2013-06-11 00:32:00,
2013-06-10 14:42:00,79.0,67.0,30.03,NNE,27,9.0,14.0,67,0.00,,,0.02,,2013-06-11 00:42:00,
2013-06-10 14:52:00,79.0,67.0,30.03,NNE,27,9.0,14.0,67,0.00,,,0.02,,2013-06-11 00:52:00,
2013-06-10 15:02:00,79.0,68.0,30.03,NNE,19,6.0,15.0,68,0.00,,,0.02,,2013-06-11 01:02:00,
2013-06-10 15:11:00,78.0,67.0,30.03,ENE,63,8.0,21.0,69,0.00,,,0.02,,2013-06-11 01:11:00,
2013-06-10 15:22:00,78.0,67.0,30.03,ENE,63,8.0,21.0,69,0.00,,,0.02,,2013-06-11 01:22:00,
2013-06-10 15:32:00,75.0,68.0,30.03,NNE,19,10.0,17.0,78,0.01,,,0.03,,2013-06-11 01:32:00,
2013-06-10 15:42:00,76.0,69.0,30.03,East,80,6.0,14.0,78,0.01,,,0.03,,2013-06-11 01:42:00,
2013-06-10 15:52:00,76.0,69.0,30.03,East,80,6.0,14.0,78,0.01,,,0.03,,2013-06-11 01:52:00,
2013-06-10 16:02:00,75.0,68.0,30.02,ENE,58,8.0,18.0,78,0.01,,,0.03,,2013-06-11 02:02:00,
2013-06-10 16:12:00,75.0,68.0,30.02,ENE,58,8.0,18.0,78,0.01,,,0.03,,2013-06-11 02:12:00,
2013-06-10 16:21:00,77.0,67.0,30.01,NE,52,9.0,16.0,72,0.01,,,0.03,,2013-06-11 02:21:00,
2013-06-10 16:31:00,77.0,68.0,30.01,NNW,333,10.0,22.0,73,0.00,,,0.03,,2013-06-11 02:31:00,
2013-06-10 16:42:00,75.0,66.0,30.01,NNE,27,7.0,19.0,74,0.00,,,0.03,,2013-06-11 02:42:00,
2013-06-10 16:52:00,75.0,66.0,30.01,NNE,27,7.0,19.0,74,0.00,,,0.03,,2013-06-11 02:52:00,
2013-06-10 17:02:00,76.0,67.0,30.01,ENE,72,9.0,17.0,75,0.00,,,0.03,,2013-06-11 03:02:00,
2013-06-10 17:12:00,75.0,67.0,30.01,East,88,5.0,15.0,75,0.00,,,0.03,,2013-06-11 03:12:00,
2013-06-10 17:22:00,75.0,67.0,30.01,East,88,5.0,15.0,75,0.00,,,0.03,,2013-06-11 03:22:00,
2013-06-10 17:32:00,75.0,67.0,30.02,East,80,9.0,21.0,75,0.00,,,0.03,,2013-06-11 03:32:00,
2013-06-10 17:42:00,75.0,67.0,30.02,East,90,9.0,17.0,76,0.00,,,0.03,,2013-06-11 03:42:00,
2013-06-10 17:53:00,75.0,67.0,30.02,East,90,9.0,17.0,76,0.00,,,0.03,,2013-06-11 03:53:00,
2013-06-10 18:02:00,74.0,66.0,30.02,East,94,9.0,19.0,76,0.00,,,0.03,,2013-06-11 04:02:00,
2013-06-10 18:12:00,74.0,66.0,30.02,East,94,9.0,19.0,76,0.00,,,0.03,,2013-06-11 04:12:00,
2013-06-10 18:22:00,74.0,66.0,30.01,North,9,10.0,18.0,75,0.00,,,0.03,,2013-06-11 04:22:00,
2013-06-10 18:33:00,74.0,66.0,30.02,NNE,33,7.0,16.0,75,0.00,,,0.03,,2013-06-11 04:33:00,
2013-06-10 18:42:00,74.0,66.0,30.02,NNE,33,7.0,16.0,75,0.00,,,0.03,,2013-06-11 04:42:00,
2013-06-10 18:52:00,74.0,65.0,30.02,NE,52,9.0,15.0,74,0.00,,,0.03,,2013-06-11 04:52:00,
2013-06-10 19:02:00,74.0,66.0,30.02,NE,52,9.0,15.0,75,0.00,,,0.03,,2013-06-11 05:02:00,
2013-06-10 19:11:00,74.0,66.0,30.02,NE,52,9.0,15.0,75,0.00,,,0.03,,2013-06-11 05:11:00,
2013-06-10 19:22:00,74.0,66.0,30.02,ENE,69,10.0,17.0,76,0.00,,,0.03,,2013-06-11 05:22:00,
2013-06-10 19:31:00,74.0,66.0,30.03,East,80,7.0,19.0,76,0.00,,,0.03,,2013-06-11 05:31:00,
2013-06-10 19:42:00,74.0,66.0,30.03,East,80,7.0,19.0,76,0.00,,,0.03,,2013-06-11 05:42:00,
2013-06-10 19:52:00,74.0,66.0,30.04,East,84,9.0,17.0,76,0.00,,,0.03,,2013-06-11 05:52:00,
2013-06-10 20:02:00,74.0,66.0,30.03,NE,56,11.0,17.0,77,0.00,,,0.03,,2013-06-11 06:02:00,
2013-06-10 20:12:00,74.0,66.0,30.03,NE,56,11.0,17.0,77,0.00,,,0.03,,2013-06-11 06:12:00,
2013-06-10 20:22:00,74.0,66.0,30.04,NE,52,9.0,16.0,77,0.00,,,0.03,,2013-06-11 06:22:00,
2013-06-10 20:32:00,74.0,66.0,30.04,East,90,11.0,16.0,77,0.00,,,0.03,,2013-06-11 06:32:00,
2013-06-10 20:42:00,74.0,67.0,30.04,ENE,74,6.0,13.0,79,0.00,,,0.03,,2013-06-11 06:42:00,
2013-06-10 20:52:00,74.0,67.0,30.04,ENE,74,6.0,13.0,79,0.00,,,0.03,,2013-06-11 06:52:00,
2013-06-10 21:02:00,74.0,67.0,30.05,ENE,76,6.0,15.0,78,0.00,,,0.03,,2013-06-11 07:02:00,
2013-06-10 21:12:00,73.0,68.0,30.05,ENE,78,9.0,14.0,83,0.00,,,0.03,,2013-06-11 07:12:00,
2013-06-10 21:21:00,73.0,68.0,30.05,ENE,78,9.0,14.0,83,0.00,,,0.03,,2013-06-11 07:21:00,
2013-06-10 21:32:00,73.0,66.0,30.05,East,96,5.0,13.0,80,0.00,,,0.03,,2013-06-11 07:32:00,
2013-06-10 21:42:00,73.0,66.0,30.05,NE,50,10.0,17.0,79,0.00,,,0.03,,2013-06-11 07:42:00,
2013-06-10 21:52:00,73.0,66.0,30.05,NE,50,10.0,17.0,79,0.00,,,0.03,,2013-06-11 07:52:00,
2013-06-10 22:02:00,74.0,67.0,30.05,NE,49,6.0,19.0,80,0.00,,,0.03,,2013-06-11 08:02:00,
2013-06-10 22:11:00,74.0,67.0,30.05,NE,49,6.0,19.0,80,0.00,,,0.03,,2013-06-11 08:11:00,
2013-06-10 22:22:00,74.0,67.0,30.05,ENE,78,9.0,17.0,78,0.00,,,0.03,,2013-06-11 08:22:00,
2013-06-10 22:32:00,74.0,67.0,30.05,East,83,10.0,17.0,78,0.00,,,0.03,,2013-06-11 08:32:00,
2013-06-10 22:41:00,74.0,67.0,30.05,East,83,10.0,17.0,78,0.00,,,0.03,,2013-06-11 08:41:00,
2013-06-10 22:52:00,74.0,67.0,30.05,East,83,10.0,17.0,78,0.00,,,0.03,,2013-06-11 08:52:00,
2013-06-10 23:01:00,74.0,67.0,30.05,East,83,10.0,17.0,78,0.00,,,0.03,,2013-06-11 09:01:00,